, AK

(GMT )
Northway

Weather History for PAOR - September, 2013

Change the Weather History Date:

Monday, September 2, 2013

  Actual Average Record
Temperature  
Mean Temperature 55 °F -  
Max Temperature 66 °F 57 °F 73 °F (1972)
Min Temperature 44 °F 37 °F 24 °F (1980)
Degree Days  
Heating Degree Days 10    
Growing Degree Days 5 (Base 50)    
Moisture  
Dew Point 46 °F    
Average Humidity 76    
Maximum Humidity 93    
Minimum Humidity 48    
Precipitation  
Precipitation 0.01 in - - ()
Sea Level Pressure  
Sea Level Pressure 29.67 in    
Wind  
Wind Speed 3 mph (ESE)    
Max Wind Speed 9 mph    
Max Gust Speed -    
Visibility 10 miles    
Events Rain    
Averages and records for this station are not official NWS values.
T = Trace of Precipitation, MM = Missing Value Source: NWS Daily Summary

Daily Weather History Graph

Daily Weather History Graph

Search for Another Location

Airport or City:

Astronomy

Sep. 02, 2013 Rise Set
Actual Time 6:18 AM AKDT 8:34 PM AKDT
Civil Twilight 5:27 AM AKDT 9:24 PM AKDT
Nautical Twilight 4:20 AM AKDT 10:30 PM AKDT
Astronomical Twilight 2:37 AM AKDT 12:08 AM AKDT
Moon 3:11 AM AKDT (9/2) 7:13 PM AKDT (9/2)
Length of Visible Light 15h 56m
Length of Day
14h 16m
Waning Crescent, 7% of the Moon is Illuminated
Sep 2
Waning Crescent
Sep 5
New
Sep 12
First Quarter
Sep 19
Full
Sep 26
Last Quarter

Hourly Weather History & Observations

Time (AKDT) Temp. Windchill Dew Point Humidity Pressure Visibility Wind Dir Wind Speed Gust Speed Precip Events Conditions
12:53 AM 44.1 °F - 41.0 °F 89% 29.78 in 10.0 mi Calm Calm - N/A   Mostly Cloudy
1:53 AM 44.1 °F 42.5 °F 42.1 °F 93% 29.76 in 10.0 mi ESE 3.5 mph - N/A   Mostly Cloudy
2:53 AM 46.0 °F - 42.1 °F 86% 29.75 in 10.0 mi Calm Calm - 0.00 in Rain Light Rain
3:53 AM 46.0 °F 43.1 °F 42.1 °F 86% 29.73 in 10.0 mi ESE 5.8 mph - 0.00 in Rain Light Rain
4:53 AM 46.0 °F 43.9 °F 43.0 °F 89% 29.73 in 10.0 mi ESE 4.6 mph - 0.01 in Rain Light Rain
5:53 AM 46.0 °F - 43.0 °F 89% 29.73 in 10.0 mi Calm Calm - 0.00 in Rain Light Rain
6:53 AM 46.0 °F 43.9 °F 43.0 °F 89% 29.72 in 10.0 mi ESE 4.6 mph - 0.00 in   Overcast
7:53 AM 46.9 °F - 44.1 °F 90% 29.72 in 10.0 mi ENE 3.5 mph - N/A   Overcast
8:53 AM 48.0 °F - 44.1 °F 86% 29.71 in 10.0 mi ESE 8.1 mph - N/A   Mostly Cloudy
9:53 AM 50.0 °F - 44.1 °F 80% 29.70 in 10.0 mi East 6.9 mph - N/A   Mostly Cloudy
10:53 AM 52.0 °F - 45.0 °F 77% 29.69 in 10.0 mi ESE 8.1 mph - N/A   Mostly Cloudy
11:53 AM 55.0 °F - 46.0 °F 72% 29.68 in 10.0 mi East 6.9 mph - N/A   Overcast
12:53 PM 57.9 °F - 46.9 °F 67% 29.68 in 10.0 mi East 9.2 mph - N/A   Mostly Cloudy
1:53 PM 62.1 °F - 48.0 °F 60% 29.66 in 10.0 mi East 5.8 mph - N/A   Mostly Cloudy
2:53 PM 66.0 °F - 46.9 °F 50% 29.65 in 10.0 mi Variable 4.6 mph - N/A   Mostly Cloudy
3:53 PM 66.0 °F - 46.0 °F 48% 29.63 in 10.0 mi Calm Calm - N/A   Mostly Cloudy
4:53 PM 64.9 °F - 46.9 °F 52% 29.62 in 10.0 mi South 3.5 mph - N/A   Overcast
5:53 PM 62.1 °F - 50.0 °F 65% 29.62 in 10.0 mi East 4.6 mph - N/A   Overcast
6:53 PM 62.1 °F - 48.9 °F 62% 29.61 in 10.0 mi SSE 3.5 mph - N/A   Overcast
7:53 PM 60.1 °F - 48.9 °F 67% 29.60 in 10.0 mi South 3.5 mph - 0.00 in   Scattered Clouds
8:53 PM 57.9 °F - 50.0 °F 75% 29.61 in 10.0 mi Calm Calm - N/A   Mostly Cloudy
9:53 PM 55.0 °F - 48.9 °F 80% 29.62 in 10.0 mi Calm Calm - N/A   Mostly Cloudy
10:53 PM 55.0 °F - 48.9 °F 80% 29.60 in 10.0 mi Calm Calm - N/A   Mostly Cloudy
11:53 PM 53.1 °F - 50.0 °F 89% 29.60 in 10.0 mi Calm Calm - 0.00 in Rain Light Rain